Tracking 30970 objects as of 3-Jul-2025
HD Live streaming from Space Station
objects crossing your sky now

COSMOS 2251 DEB

Track COSMOS 2251 DEB now!
10-day predictions


NORAD ID: 34997
Int'l Code: 1993-036AFV
Perigee: 683.4 km
Apogee: 823.2 km
Inclination: 73.9 °
Period: 99.7 minutes
Semi major axis: 7124 km
RCS: 0.0096 m2 (small)
Launch date: June 16, 1993
Source: Commonwealth of Independent States (former USSR) (CIS)
Launch site: PLESETSK MISSILE AND SPACE COMPLEX (PKMTR)

Note: This is SATELLITE DEBRIS
Your satellite tracking list
STARLINK-31476
Track 1 satellite(s)




NASA's NSSDC Master Catalog

Two Line Element Set (TLE):
1 34997U 93036AFV 25182.48805667  .00002576  00000-0  72301-3 0  9991
2 34997  73.8805 259.8502 0098116 270.4215  88.5699 14.43733200683753
Source of the keplerian elements: AFSPC